Powrót do katalogu

SL-12 R/B(2)

AktywnyGEO
NORAD 12471·ROCKET BODY·🇷🇺 Russia

Wystrzelony Dec 26, 1980 z Baikonur Cosmodrome

Loading…

TLE

ŚwieżeSource: Space-Track

Epoka: Sep 14, 2026, 11:46 UTC

1 12471U 80104E   26257.49050610 -.00000253  00000-0  00000-0 0  9996
2 12471   5.2857 286.2025 0031315 202.1272 334.1496  1.01342831120868

Śledź SL-12 R/B(2) w czasie rzeczywistym z AllMySat

Download on the App Store